Theta_e
273 274 275 277 278 281 282 281 281 280 281 281 278 278 280 281 276 274 282 283 282 284 287 288 289 289 289 290 291 291 289 288 289 291 292 293 292 290 289 290 290 291 292 293 293 294 295 295 294 294 294 294 294 295 295 295 294 294 295 295 295 295 296 296 297 298 298 298 298 298 298 298 297 297 297 298 299 300 301 302 303 303 303 304 302 302 302
272 273 275 276 276 277 281 282 282 282 281 280 280 280 281 281 280 282 282 283 283 286 288 289 290 290 291 291 292 292 291 291 291 289 290 291 291 291 290 291 291 291 292 293 294 295 295 294 294 294 294 294 294 294 294 294 294 294 294 294 295 295 295 296 297 297 297 296 296 296 296 297 297 296 295 296 297 298 299 300 300 300 300 300 300 299 298
269 273 275 275 275 274 272 278 282 282 282 282 282 281 282 282 281 283 283 282 282 287 290 290 291 290 292 291 290 291 292 292 293 294 292 291 292 291 292 291 291 291 292 292 293 293 294 294 294 294 295 295 295 294 294 294 293 293 294 294 294 295 295 296 297 296 296 295 295 295 296 297 297 296 294 294 295 296 297 297 297 297 297 297 297 297 297
267 271 272 273 274 273 272 272 275 280 281 279 281 280 282 281 279 281 281 280 281 287 290 291 291 291 290 289 290 291 291 292 292 292 293 294 295 294 292 292 292 291 290 291 291 292 293 294 294 294 295 294 294 293 294 294 294 293 292 293 294 294 295 296 296 295 295 295 294 294 295 296 296 295 294 293 294 295 296 296 297 296 295 296 296 297 298
265 270 272 270 271 271 269 270 274 277 281 282 283 284 284 284 284 281 278 279 286 288 290 289 289 290 290 290 290 291 291 292 292 292 293 293 294 296 295 293 293 293 292 292 292 292 293 295 295 295 295 294 294 294 295 295 295 292 292 292 293 294 294 294 294 294 294 294 294 294 294 295 295 294 293 293 293 294 294 295 296 294 295 295 295 295 296
264 269 270 271 268 262 263 278 284 283 280 281 280 280 282 285 285 283 286 286 288 289 289 288 288 289 290 291 292 293 293 292 292 293 293 294 294 295 297 296 295 295 294 293 293 294 294 295 296 297 296 295 295 295 296 296 294 293 292 292 293 293 293 293 293 293 293 293 293 294 294 294 294 293 292 292 293 293 294 294 294 294 294 294 295 295 295
264 267 269 266 260 261 277 281 280 282 285 284 282 283 284 285 286 286 286 287 288 289 290 290 290 291 292 293 293 293 293 293 293 293 293 294 294 294 295 296 295 295 294 294 294 294 294 295 296 296 295 294 294 294 294 294 294 294 293 293 292 293 292 292 292 293 293 292 293 293 293 293 293 292 291 292 291 292 293 293 293 293 294 294 295 295 295
269 267 265 259 260 275 278 277 279 281 281 283 283 282 284 286 286 287 285 287 288 289 290 291 292 292 292 293 293 293 294 294 293 293 293 294 294 294 295 295 297 296 295 295 294 294 297 296 295 295 294 294 293 293 293 293 293 293 294 294 293 292 292 292 292 292 292 292 293 293 292 292 292 292 291 291 291 291 291 292 293 293 294 294 294 293 294
263 264 266 264 272 272 272 274 276 277 276 279 280 276 281 286 288 287 286 287 288 289 290 291 292 290 289 288 289 292 293 294 294 294 294 295 295 295 295 296 296 298 298 296 297 297 297 296 294 294 294 294 293 292 292 292 292 292 293 293 293 293 292 292 291 292 292 292 292 292 292 292 292 292 292 291 291 291 290 291 291 292 293 293 294 294 293
268 265 263 264 264 261 267 276 279 282 282 282 283 281 280 287 288 289 288 287 288 289 290 290 291 289 286 284 287 291 291 292 293 294 294 294 295 295 296 297 296 297 297 296 296 297 296 295 295 295 294 293 292 291 291 291 291 291 291 292 293 293 293 292 292 292 292 292 292 291 291 292 292 293 293 293 292 290 290 290 290 290 291 292 293 293 292
267 265 262 262 261 264 275 276 280 283 286 284 285 280 276 286 288 289 289 288 288 289 289 289 291 286 283 283 288 293 292 292 292 291 291 292 293 294 295 295 294 295 295 295 295 294 295 293 295 294 293 292 291 290 290 291 291 290 291 292 293 293 293 293 292 292 292 292 292 291 291 292 292 291 292 292 291 290 291 291 291 291 291 291 292 292 292
266 265 264 262 267 266 274 278 280 284 283 285 282 271 271 277 274 279 281 285 288 289 290 290 289 286 282 284 289 294 293 293 292 291 291 291 292 292 293 294 294 294 294 293 293 293 293 293 294 293 292 291 290 290 290 291 290 290 291 292 293 295 295 294 293 292 292 291 292 291 291 291 292 291 291 290 290 289 290 291 291 291 290 290 290 290 291
266 267 264 268 269 275 279 279 281 283 284 282 272 267 275 277 277 280 282 282 284 287 289 290 287 289 290 291 293 294 292 293 292 292 292 293 293 293 293 294 293 294 294 294 294 293 294 294 294 293 291 290 289 289 290 290 289 290 292 293 293 294 294 293 292 291 291 292 291 291 292 291 291 290 290 290 289 288 289 289 290 289 289 289 290 290 291
264 266 264 265 270 277 281 282 281 284 280 270 269 278 279 277 279 281 281 281 283 284 282 284 286 290 292 293 293 290 291 292 292 292 292 292 292 293 292 292 292 293 293 293 293 293 293 294 293 292 290 289 289 289 289 289 290 291 292 292 292 293 293 293 292 291 291 291 292 292 291 291 290 289 290 290 289 289 289 289 288 287 288 288 289 289 290
268 267 264 264 261 273 280 282 279 281 275 275 279 278 279 281 281 281 281 282 283 284 283 284 284 285 286 287 289 291 291 290 291 291 289 289 290 290 290 289 289 290 290 290 291 291 292 292 291 290 289 288 289 289 289 290 291 291 291 292 292 292 292 292 291 291 291 290 290 291 289 289 289 288 288 287 287 288 288 287 287 287 287 288 288 288 288
264 264 263 264 272 275 275 280 275 279 277 281 280 280 278 281 280 280 281 282 283 285 284 284 284 284 284 285 287 288 289 290 291 291 290 289 289 290 290 291 291 289 289 290 290 291 291 290 289 289 289 288 289 288 289 291 291 291 291 291 291 291 291 291 290 290 289 289 290 289 288 288 288 287 286 287 287 287 287 287 287 287 287 287 287 287 287
268 266 270 275 274 275 279 279 280 279 281 283 282 281 280 280 280 283 282 281 283 285 285 285 284 284 285 285 285 285 287 288 289 289 289 290 290 290 290 291 290 289 289 289 289 289 289 289 289 288 289 288 288 288 290 291 290 290 290 290 290 289 290 289 288 288 288 288 288 288 288 288 287 287 286 286 286 287 287 287 287 287 287 287 287 287 288
275 276 276 278 278 278 279 281 281 281 282 283 283 282 280 281 283 283 282 283 284 285 286 284 284 285 285 285 284 285 285 286 287 288 289 289 290 289 289 289 288 287 287 287 287 287 288 288 288 288 288 289 287 289 290 290 290 290 289 288 287 288 288 288 288 287 286 286 286 287 287 288 287 288 287 287 287 287 287 287 287 287 287 287 287 287 287
270 265 277 276 277 279 279 280 281 282 283 283 283 282 282 283 284 284 284 284 284 284 284 284 284 284 285 285 285 285 285 285 286 287 288 289 289 288 286 287 286 286 285 285 285 286 286 287 287 287 287 288 289 290 290 290 290 289 288 287 287 287 287 288 287 286 286 286 286 286 286 287 288 288 288 288 288 287 287 287 287 287 287 287 287 287 287
268 269 274 276 278 278 279 278 279 280 282 283 283 283 284 284 285 285 285 285 284 285 284 285 284 285 286 285 286 285 285 285 285 285 286 286 287 287 286 286 285 285 284 285 285 285 285 287 287 287 287 287 288 289 289 288 288 287 286 286 287 287 287 287 287 286 287 284 285 286 286 287 287 288 288 288 287 287 287 288 287 287 287 287 287 287 287
272 275 276 275 275 276 277 279 281 282 283 283 283 283 283 284 284 284 284 284 284 284 283 285 285 284 285 286 286 285 285 285 285 285 285 285 285 285 284 283 282 283 284 284 285 285 285 287 286 286 286 287 287 287 287 287 287 286 286 285 286 287 287 287 287 286 287 286 287 287 287 286 288 289 288 287 287 288 289 289 289 289 288 288 288 288 288
267 268 271 274 270 270 275 279 280 281 283 284 283 284 283 284 283 283 282 282 283 283 284 284 285 283 283 284 285 284 284 284 284 284 284 283 283 283 283 283 282 282 282 284 284 284 285 285 285 285 285 286 286 286 286 286 286 286 286 286 286 286 286 286 286 286 287 286 287 287 286 286 286 287 287 287 288 288 288 287 286 287 288 288 289 289 288
267 273 275 276 276 276 277 279 280 280 281 283 282 283 283 282 282 281 280 279 280 282 283 284 282 279 280 281 283 283 284 284 284 284 283 282 283 283 283 282 281 281 282 282 283 283 284 284 284 284 284 285 285 286 286 286 286 286 286 286 286 285 285 286 286 286 286 286 287 287 287 287 287 286 286 286 286 286 287 286 286 286 287 287 287 287 288
275 276 277 278 277 275 278 279 279 281 282 282 281 281 280 280 279 278 278 278 280 280 279 280 280 277 278 279 281 280 282 284 284 284 284 284 283 282 281 281 282 282 281 281 282 283 284 283 283 284 284 284 285 285 285 285 286 286 285 286 286 285 285 286 285 286 287 286 286 286 286 286 286 286 286 285 285 285 285 285 286 286 287 287 287 287 287
273 277 278 278 278 278 279 280 281 279 278 279 279 278 277 277 276 276 276 279 280 276 276 277 276 276 275 277 278 278 279 281 283 282 283 283 282 281 281 281 280 282 283 283 283 283 283 283 283 283 283 284 284 284 284 285 285 285 285 285 285 285 285 285 285 285 286 286 285 286 285 285 285 285 285 285 285 285 285 285 285 285 286 286 287 287 287
277 277 279 279 278 278 279 278 277 276 275 274 274 275 275 275 274 274 276 278 276 275 275 275 272 273 274 275 275 275 276 277 279 282 284 284 285 284 283 282 283 283 283 282 282 282 282 282 282 283 283 284 283 283 283 284 284 284 284 285 285 285 285 285 285 285 285 285 286 286 286 286 286 285 286 286 286 285 285 284 284 285 285 285 286 286 286
278 279 278 276 276 277 278 277 276 275 273 272 272 273 273 272 272 274 275 275 273 273 273 272 271 271 273 273 273 273 274 275 276 279 281 283 283 284 286 286 284 283 282 282 282 282 280 281 281 282 282 284 284 283 283 283 284 284 284 284 284 282 282 283 285 285 286 286 286 286 286 285 285 285 285 285 286 285 285 284 283 283 284 285 285 285 286
275 273 275 273 273 275 273 273 274 272 271 270 270 271 270 271 271 272 270 270 270 270 271 271 269 269 269 271 270 270 272 272 273 275 277 279 282 284 285 285 286 284 283 283 283 282 281 281 281 281 282 283 283 282 282 283 283 283 284 283 284 284 283 283 285 285 285 285 286 286 285 285 285 286 286 285 285 285 285 285 285 284 285 286 286 286 285
269 268 266 268 270 271 273 273 271 270 269 269 269 270 268 267 268 269 268 268 268 268 269 268 268 268 268 268 269 268 270 271 272 273 275 278 280 282 284 285 284 283 282 282 282 282 282 282 282 281 282 283 282 282 282 282 283 284 283 283 283 283 283 283 285 285 285 285 285 285 284 285 285 285 285 285 285 285 285 285 285 285 285 285 285 285 285
266 266 266 268 269 271 271 269 268 267 266 266 266 266 266 265 265 266 266 266 266 265 266 266 266 266 266 266 267 267 268 270 271 273 274 277 281 283 283 282 281 282 282 282 281 281 281 281 282 282 283 283 281 282 282 282 284 284 284 284 284 284 283 283 284 284 284 284 284 282 284 284 285 285 285 285 285 285 285 284 284 284 284 284 284 284 284
262 264 265 266 267 266 266 265 264 263 263 263 264 264 263 263 262 262 263 263 263 263 264 264 264 264 264 264 265 267 269 270 270 272 275 279 281 281 280 279 280 281 280 279 279 279 279 280 281 282 283 282 282 282 282 283 284 284 284 284 284 282 282 282 282 284 284 283 283 283 283 284 284 284 284 284 284 284 284 284 284 284 284 284 284 284 284
261 261 261 263 263 263 262 262 261 260 261 261 261 261 261 260 259 259 260 260 261 262 262 262 262 262 262 263 264 267 268 268 269 272 275 279 279 279 278 278 278 278 278 278 278 278 278 279 279 279 277 279 281 282 282 282 283 283 284 282 284 283 282 281 282 283 283 283 283 283 283 283 283 283 283 283 283 284 284 284 283 283 284 284 284 284 285
262 262 262 260 260 260 259 259 259 258 259 259 260 260 260 260 259 259 259 260 260 261 261 261 261 261 261 262 264 266 267 267 270 272 272 274 276 276 276 275 274 274 274 274 275 276 276 276 277 278 278 278 280 281 282 282 283 283 283 283 283 283 280 281 282 282 282 282 282 283 283 283 284 283 283 283 284 284 284 284 284 284 284 284 284 285 285
258 260 259 258 259 260 259 257 257 257 259 259 259 259 258 258 258 258 258 259 259 259 260 260 260 260 261 262 264 266 266 267 269 269 270 270 271 272 274 274 273 272 271 271 271 271 272 273 274 276 279 279 279 280 281 282 283 283 283 283 282 281 281 281 281 282 281 281 282 282 282 282 283 283 283 283 284 284 284 284 284 284 284 284 284 285 285
257 257 257 256 256 256 257 256 256 256 257 256 257 257 257 257 256 257 258 258 258 259 260 260 260 260 261 262 264 265 264 265 267 267 268 268 268 269 271 271 271 270 269 269 268 268 270 271 272 274 276 278 279 279 279 280 282 283 283 283 283 282 282 282 282 282 282 282 282 282 282 282 282 281 282 283 283 284 284 284 284 284 284 284 284 285 285
254 255 255 255 254 253 254 255 256 255 255 255 255 255 255 255 255 255 255 256 259 259 259 259 259 259 261 262 263 263 263 264 266 266 266 266 266 268 268 267 268 268 267 268 267 267 268 270 272 272 273 274 275 276 279 280 281 281 282 283 283 282 282 282 282 282 283 282 282 282 282 281 281 282 282 283 283 283 283 283 283 283 284 284 284 284 284
253 253 253 253 253 252 252 254 254 253 253 253 253 254 253 254 254 255 256 257 257 258 258 258 258 258 260 262 263 263 262 262 264 266 265 265 265 264 264 264 264 264 265 264 265 266 267 268 270 271 271 272 273 274 276 279 281 282 282 282 282 282 282 282 282 282 281 282 282 281 281 281 281 281 281 282 282 282 282 283 283 283 283 284 284 284 283
253 252 252 252 252 252 252 253 253 252 251 251 251 252 253 253 253 254 255 256 256 257 257 257 257 259 261 262 262 261 260 261 261 264 265 263 263 262 261 261 261 262 262 262 264 265 266 267 269 269 269 270 271 272 275 278 281 283 283 283 282 282 282 281 281 281 281 281 281 281 281 281 281 281 281 281 282 282 282 283 283 283 283 283 284 284 283
252 252 252 252 253 252 252 252 251 251 251 250 250 251 252 253 253 253 254 255 255 256 256 256 257 259 260 260 260 260 259 259 260 262 263 263 263 261 260 260 260 261 262 264 264 264 265 266 267 267 267 268 270 272 274 276 279 283 283 283 282 282 282 282 281 281 281 281 281 281 281 281 281 281 281 281 282 282 282 282 283 283 283 283 283 283 283
250 250 250 251 252 252 252 251 251 250 250 250 250 249 251 251 252 252 253 254 254 255 255 255 256 258 258 258 258 259 259 259 259 259 260 261 262 261 260 260 260 261 262 264 263 264 264 265 265 265 266 267 268 270 272 274 275 275 276 278 279 280 280 281 282 281 281 281 281 280 281 281 281 282 282 282 282 282 282 282 282 283 283 283 283 283 283
248 248 249 250 250 251 251 249 249 249 249 249 250 250 251 251 251 251 251 252 253 254 254 254 256 257 257 257 258 258 258 259 258 257 258 259 259 259 258 257 259 261 261 262 262 263 263 263 264 264 264 265 267 268 270 271 272 273 273 273 274 274 275 275 275 276 277 278 279 280 281 282 282 282 282 282 282 282 282 282 282 283 283 283 283 284 284
247 246 247 247 247 247 247 247 248 248 249 249 249 249 249 250 250 250 251 252 252 253 253 253 255 255 256 257 257 257 256 257 258 258 257 256 256 257 257 257 259 260 261 261 261 262 261 262 263 263 264 265 266 267 268 269 270 270 271 270 271 272 272 272 273 273 274 275 276 276 276 276 276 277 277 277 277 277 277 278 279 280 281 282 283 284 284
246 245 246 246 246 246 245 246 247 247 247 248 248 248 249 249 250 250 251 251 251 251 251 252 253 254 254 255 255 255 255 255 256 257 258 257 257 257 256 257 258 259 260 260 260 260 260 261 261 262 263 264 265 266 266 266 267 268 268 268 268 268 269 269 270 271 272 272 271 272 272 272 273 274 274 273 272 272 272 272 272 273 274 274 274 275 276
245 246 245 246 246 246 245 246 246 246 247 248 248 248 248 249 249 249 250 250 250 251 250 250 251 252 252 254 254 253 253 253 254 255 256 257 256 257 257 257 258 258 259 259 259 259 259 260 261 261 262 263 264 264 264 264 265 265 265 265 265 266 266 267 268 268 268 269 269 269 269 270 269 270 271 270 270 270 269 269 269 270 271 271 271 272 273
245 245 246 246 245 246 247 247 246 247 247 246 247 248 248 248 248 249 249 249 249 250 250 250 250 250 251 252 253 254 253 253 253 253 253 253 253 254 256 257 257 257 258 258 258 258 258 259 260 260 261 261 262 262 262 263 263 263 263 263 263 263 264 264 265 266 266 266 266 266 267 267 267 268 268 268 268 267 267 267 267 267 268 268 269 269 270
246 245 245 247 246 246 246 247 247 247 247 247 247 248 248 248 248 249 249 249 249 249 249 249 250 250 250 250 252 253 254 254 253 253 253 253 252 254 256 256 256 256 256 257 257 257 257 258 259 259 259 260 260 260 261 261 261 261 261 261 261 262 262 262 263 264 264 264 264 264 264 264 265 266 266 266 265 265 265 266 266 266 266 266 267 267 267
245 245 245 245 245 246 246 246 247 247 246 246 247 247 248 248 249 249 249 250 249 249 249 249 249 249 250 250 250 250 251 253 253 253 253 253 254 254 255 255 255 255 255 255 256 256 256 256 257 258 258 258 258 258 259 259 259 259 260 260 260 260 260 260 261 262 262 262 262 263 263 263 262 263 264 264 263 263 263 263 263 264 264 265 265 265 265
245 245 245 245 244 245 245 245 246 245 246 246 247 248 248 248 248 249 249 249 250 249 249 249 249 249 250 250 250 251 251 251 251 251 252 252 253 253 253 253 254 254 254 254 254 255 256 256 256 256 257 257 256 257 257 257 257 258 258 258 258 258 258 259 259 260 260 260 260 260 260 260 260 260 261 261 261 261 261 261 261 262 262 263 263 263 263
244 244 245 245 245 245 245 246 246 246 247 247 247 248 248 248 248 248 249 249 249 249 249 248 248 249 249 250 250 250 251 252 251 250 251 252 252 252 252 253 253 253 253 252 252 253 254 254 255 255 255 255 255 255 256 256 256 256 256 256 257 257 257 257 258 259 258 258 259 259 258 258 258 259 259 259 260 260 260 259 260 260 261 261 261 262 262
245 246 246 246 245 245 245 245 246 246 247 247 247 248 248 249 248 248 248 248 249 249 248 248 248 248 249 249 250 250 250 251 251 251 251 251 251 251 251 251 252 252 252 252 251 252 253 253 253 253 253 253 254 254 254 254 254 255 255 255 255 256 256 256 257 257 257 257 257 258 257 257 257 258 258 258 258 258 258 258 258 259 260 260 260 260 260
246 246 246 247 246 246 245 245 246 246 247 247 247 248 248 248 247 247 248 248 248 248 248 248 247 248 248 249 249 249 250 250 251 251 251 251 251 251 251 251 251 251 251 251 251 251 251 252 252 252 252 252 253 253 253 253 253 253 253 253 254 254 254 255 255 255 255 256 256 256 256 256 256 256 256 256 256 256 256 257 257 257 257 258 258 258 259
246 246 247 247 247 247 246 246 246 247 247 247 247 247 247 247 247 247 247 248 247 247 247 247 246 247 248 248 248 248 249 249 250 250 250 250 250 250 250 250 250 250 250 250 250 250 251 251 252 252 252 251 252 252 253 253 252 252 252 253 253 253 254 254 254 254 254 254 254 254 255 255 255 255 255 255 255 255 255 255 256 256 256 257 257 258 258
Wind_Speed
13 13 14 15 14 13 19 23 22 24 23 23 23 20 17 19 15 15 13 22 23 24 17 9 8 2 2 6 10 2 3 0 4 6 8 6 1 3 5 7 7 8 9 10 11 10 10 8 8 10 8 8 6 5 5 6 6 8 7 7 8 8 7 8 8 7 6 6 5 5 5 5 6 7 8 8 8 7 8 8 5 5 5 6 6 5 5
17 16 14 14 15 13 15 22 24 24 25 27 26 25 24 24 18 16 21 18 24 23 17 13 9 4 6 10 10 11 9 8 10 7 4 5 5 5 5 6 7 8 9 9 9 9 7 9 10 9 9 9 9 9 8 8 7 7 7 8 8 8 8 8 7 6 6 5 6 6 6 6 6 7 7 7 9 8 6 6 5 4 4 4 4 5 5
16 13 11 11 12 13 16 16 19 24 25 26 27 24 25 25 23 20 22 25 23 20 16 11 4 6 5 6 10 15 15 16 19 11 7 8 7 5 6 7 8 8 8 8 7 8 10 11 12 11 10 9 7 7 7 8 9 8 8 8 8 8 9 7 6 6 6 6 6 7 7 6 5 7 7 7 8 10 8 6 6 6 5 5 5 5 4
14 8 9 14 13 16 16 14 17 18 22 24 22 21 20 20 22 24 26 23 20 17 14 12 14 10 12 15 14 13 12 14 14 16 20 16 7 8 7 8 7 8 9 10 11 12 13 13 13 10 9 8 7 9 8 9 9 8 8 8 8 9 8 6 6 7 7 7 7 7 7 7 7 7 7 7 8 10 11 11 8 6 6 6 5 5 5
13 13 10 14 17 14 13 10 12 15 17 13 17 21 22 26 23 22 21 21 16 17 5 10 15 17 17 14 12 13 16 15 16 18 17 20 19 11 7 7 7 8 10 12 13 14 13 12 11 12 11 8 9 10 9 10 8 8 10 10 9 8 7 7 7 7 7 8 8 7 8 8 7 7 7 7 8 10 11 10 9 8 8 7 7 6 5
10 16 13 10 11 14 10 6 7 10 15 16 20 19 22 23 21 17 16 17 17 17 15 17 24 17 16 15 16 16 14 14 16 17 18 18 19 18 12 8 8 7 6 6 10 13 14 14 13 11 10 11 11 11 9 4 8 9 9 8 8 8 7 8 7 7 8 8 8 8 8 8 8 8 9 10 9 9 8 7 9 9 8 9 8 9 8
11 14 14 11 15 13 6 1 8 12 14 16 19 19 22 22 22 20 19 17 18 19 17 20 22 17 17 17 15 14 16 17 16 16 17 16 17 16 15 13 9 9 9 9 9 10 12 14 12 9 8 8 9 7 6 8 8 9 8 8 8 8 8 8 8 8 8 8 8 8 8 8 8 8 10 9 9 8 8 9 10 11 11 11 10 10 9
9 12 12 12 8 5 14 16 14 10 10 13 17 20 21 22 23 22 23 24 23 24 24 21 15 8 9 8 10 15 16 15 16 17 16 18 16 15 14 15 14 11 13 13 13 14 11 10 8 8 9 9 9 10 8 9 7 9 9 9 9 8 8 8 10 9 9 8 7 7 8 8 9 9 10 10 9 8 8 7 7 7 7 7 9 9 9
13 12 16 16 11 18 16 13 13 10 9 8 11 17 19 23 21 22 22 24 24 23 22 19 14 6 4 8 12 16 16 14 16 20 20 18 16 18 19 16 14 13 12 12 13 13 7 8 8 9 9 9 10 9 8 8 9 9 9 9 9 10 10 10 10 10 9 9 8 8 9 9 9 9 10 11 9 8 8 8 8 8 9 9 7 9 9
11 13 15 12 10 16 13 10 15 14 16 15 15 14 18 15 22 23 22 25 26 26 25 23 16 7 4 12 16 16 16 12 12 11 15 18 18 18 14 13 14 15 10 8 10 9 12 12 10 9 9 8 9 10 11 9 9 9 9 11 10 10 11 11 10 10 10 10 10 9 9 10 10 8 8 8 10 9 9 9 8 8 7 7 7 7 8
11 14 14 12 13 12 8 11 8 9 7 11 11 11 17 11 14 15 20 23 23 24 21 19 10 6 11 16 19 8 18 14 16 18 20 20 20 13 10 13 15 13 10 13 13 11 10 11 11 9 10 11 10 11 10 9 10 10 12 12 11 11 11 10 10 10 10 10 9 10 10 9 8 8 9 8 9 9 8 8 8 8 7 8 7 6 7
14 12 14 16 8 9 6 12 11 2 9 10 9 14 1 10 14 13 18 15 21 21 21 18 14 12 14 19 18 8 16 17 20 18 18 18 17 18 17 17 15 16 14 13 11 10 11 11 12 11 11 8 11 11 10 10 11 13 13 13 12 10 9 10 10 10 9 11 10 10 10 9 7 7 7 6 8 8 8 7 7 7 7 9 9 8 7
18 22 15 11 10 7 8 13 13 9 7 6 12 13 5 11 11 13 13 15 16 15 16 15 14 13 17 17 17 2 12 14 14 14 15 16 17 17 17 16 16 13 13 13 11 12 14 13 13 11 9 9 11 11 11 12 15 14 12 10 10 10 7 8 10 10 10 11 11 9 9 9 8 7 7 8 9 8 8 7 7 6 8 9 8 8 7
14 13 17 14 10 6 5 7 4 6 4 11 11 2 0 4 10 14 12 13 13 12 9 10 10 12 14 15 14 6 13 12 12 12 14 12 10 10 11 10 8 9 9 11 12 12 12 11 10 9 9 10 11 11 12 15 16 9 9 11 9 7 8 9 10 10 10 10 8 7 6 8 8 8 6 7 8 8 7 7 8 6 7 7 7 7 6
10 11 13 14 15 4 8 10 2 2 8 2 5 2 3 3 6 9 12 11 11 12 14 12 12 14 15 13 12 6 8 7 10 10 7 10 13 13 11 9 8 8 7 10 11 12 11 10 7 7 10 12 11 10 13 15 8 9 11 8 7 8 8 9 9 10 10 11 8 7 6 8 8 8 8 8 7 8 7 7 8 8 8 8 8 7 6
8 12 11 8 4 2 5 7 7 4 2 1 2 1 6 4 2 7 9 11 10 11 14 14 14 14 13 12 10 9 9 10 11 6 3 6 8 7 8 8 7 8 9 8 9 10 8 6 6 8 11 12 13 14 16 9 8 10 9 9 8 9 8 7 8 8 7 7 7 6 7 8 9 10 9 8 8 8 8 7 7 8 8 8 7 7 7
9 7 5 4 3 6 2 4 2 1 4 1 3 0 5 6 4 5 4 9 13 12 13 15 13 12 12 13 11 10 10 10 10 10 9 9 10 11 12 13 9 6 9 11 10 9 7 8 7 8 9 13 15 16 12 8 10 10 10 9 9 8 8 6 5 5 7 7 7 6 7 9 10 10 10 10 9 9 9 8 8 8 8 8 8 8 7
8 10 10 7 2 3 4 2 1 4 2 5 4 6 5 5 5 5 5 6 10 13 11 12 11 11 13 13 13 11 11 11 11 11 11 10 10 11 10 12 11 10 7 8 9 11 9 8 8 8 9 11 14 15 9 10 9 9 10 9 10 11 9 8 9 9 10 6 6 6 8 7 7 8 10 10 9 10 10 9 9 9 9 9 9 8 9
4 4 4 3 5 3 3 5 4 4 6 5 5 5 6 7 6 5 4 4 6 10 11 9 12 13 11 13 11 10 9 10 11 11 12 11 8 8 10 12 7 7 5 8 10 10 11 8 8 8 8 10 10 6 6 6 7 9 10 11 11 9 10 7 7 8 10 9 8 9 8 8 6 7 8 8 9 9 10 9 10 9 9 9 9 9 9
11 10 9 4 4 7 7 8 6 7 8 8 7 7 7 7 7 6 5 5 7 8 11 14 14 15 15 14 13 11 10 10 10 11 11 11 8 7 9 8 8 6 7 8 10 10 11 9 8 8 9 9 9 7 5 6 7 9 10 11 10 10 10 7 7 9 8 12 11 9 9 9 7 7 7 8 9 9 11 11 10 10 9 10 10 9 9
7 8 8 11 14 13 13 9 9 6 5 6 6 7 7 7 7 5 6 4 6 7 10 13 14 14 14 15 15 14 12 11 10 11 12 11 10 8 7 9 8 8 6 8 10 9 10 6 5 6 6 7 8 7 6 8 10 11 10 10 9 8 7 6 6 7 7 8 8 8 8 7 5 5 7 9 8 5 4 5 6 6 8 7 7 6 6
10 10 11 8 9 8 5 7 7 7 6 5 7 6 7 7 5 6 7 8 7 6 7 10 12 13 13 15 15 15 12 10 11 12 13 11 9 8 7 2 1 5 6 7 8 8 9 5 6 6 6 6 4 4 5 7 10 11 11 9 7 6 6 6 6 8 7 7 5 6 6 7 7 6 3 3 5 5 6 5 5 3 4 4 5 5 6
13 12 15 12 12 14 10 6 5 5 5 6 7 7 6 5 5 6 7 8 9 9 8 8 10 13 12 14 14 14 12 11 10 10 12 10 7 5 4 4 7 7 9 7 6 6 6 5 4 5 5 7 5 5 6 7 10 11 11 8 7 7 7 7 9 8 7 8 7 6 6 6 6 6 6 4 2 2 2 5 7 7 6 3 4 6 5
14 13 11 9 8 9 7 4 7 2 2 1 2 1 1 3 4 6 6 6 7 8 8 7 7 11 12 11 12 14 15 13 12 13 14 14 8 6 4 3 5 6 8 7 6 6 5 4 4 4 5 5 6 6 8 10 10 10 12 10 9 9 9 7 10 9 6 7 7 6 6 5 5 6 5 6 5 6 5 4 6 8 8 8 7 6 7
14 14 14 8 5 7 8 5 3 4 3 2 1 1 3 3 3 5 6 6 5 7 8 9 10 9 12 12 11 12 14 15 12 12 12 12 11 7 6 5 6 10 9 5 4 4 5 4 4 4 5 5 4 6 7 8 9 10 11 11 10 7 8 8 9 9 7 7 7 7 7 7 6 6 6 6 6 5 6 5 4 5 7 8 8 8 8
16 15 12 9 7 9 5 6 3 3 4 3 2 2 3 3 5 5 4 5 5 6 7 7 10 11 11 12 11 12 13 13 16 13 9 10 11 9 7 5 7 8 6 3 2 0 1 4 5 5 6 5 5 5 5 6 9 10 10 9 8 7 9 9 9 8 8 7 8 7 6 6 6 6 5 5 4 4 5 5 4 5 7 9 10 10 10
12 9 7 8 9 10 4 6 5 3 3 3 2 0 3 5 5 3 3 3 4 5 6 7 8 10 10 9 11 10 10 13 13 10 9 8 9 10 10 10 9 8 7 2 2 3 3 2 3 4 5 5 5 6 7 7 7 8 8 7 4 7 10 9 7 8 7 8 7 6 7 7 7 7 6 5 5 5 5 6 7 6 6 6 8 11 10
3 3 4 10 11 8 6 3 5 4 4 3 3 2 3 4 3 2 2 2 4 5 5 6 9 10 10 9 11 11 11 11 12 13 12 10 9 9 9 11 13 8 7 4 1 2 3 3 4 4 4 3 3 5 8 8 8 8 8 8 7 7 8 9 6 6 7 7 7 8 8 8 7 6 7 8 7 6 6 6 6 6 6 6 5 7 10
3 3 3 2 4 4 4 5 5 4 3 4 4 3 4 4 2 2 4 5 5 4 3 6 8 8 8 10 8 9 9 10 11 14 14 12 11 10 10 11 9 7 5 5 2 0 1 2 3 5 4 3 4 5 7 9 8 7 8 6 7 7 7 7 7 5 5 6 6 6 7 7 8 8 9 9 7 7 7 7 7 7 6 5 5 5 6
3 2 2 3 3 3 7 4 3 3 4 5 6 4 6 6 4 3 4 6 8 6 6 7 6 7 8 8 8 9 9 11 11 12 14 13 12 10 9 8 8 7 4 2 3 2 2 2 2 3 1 3 5 6 6 7 6 8 9 9 7 7 7 7 6 7 6 5 6 8 7 6 7 9 9 9 9 9 8 9 8 8 7 7 7 7 8
3 3 3 4 5 5 6 5 4 4 3 5 5 5 5 6 4 4 4 5 6 7 9 8 8 9 8 8 9 9 8 9 10 11 12 12 10 8 8 6 4 4 5 6 7 5 3 3 2 2 2 1 5 6 7 6 3 4 6 5 5 8 10 13 9 8 7 7 7 7 8 9 9 8 9 9 9 9 9 9 9 8 8 8 8 8 8
6 4 4 4 3 4 5 4 3 4 4 4 5 6 7 7 7 8 7 6 6 8 9 9 9 10 10 11 10 9 9 10 10 10 10 9 9 9 9 8 6 5 5 8 8 8 7 6 6 6 5 2 2 6 6 7 5 5 5 7 7 6 9 13 7 8 5 6 7 7 7 8 9 9 9 9 9 10 9 9 9 9 8 8 8 8 8
5 3 2 1 2 3 3 3 3 3 4 5 5 4 4 4 5 6 6 7 8 8 8 8 9 10 11 11 11 10 10 10 9 8 10 10 10 9 9 8 8 9 9 9 9 9 10 9 8 7 5 3 1 3 5 7 6 5 5 4 3 5 8 10 8 7 6 6 6 7 7 6 7 9 9 9 8 8 8 9 8 8 8 8 8 7 8
4 3 4 5 3 1 1 2 3 2 3 3 3 4 4 4 5 6 7 8 8 9 9 10 11 11 11 11 10 10 10 9 7 8 10 10 10 10 9 7 7 8 7 9 10 9 9 10 10 8 7 4 2 1 2 3 4 4 5 5 5 5 6 6 8 6 7 6 6 6 6 6 6 6 7 8 8 8 8 9 8 8 7 7 7 7 7
6 6 6 6 6 5 4 2 2 2 3 3 4 3 3 4 5 6 8 8 8 9 10 10 10 10 10 9 9 9 9 7 7 8 9 9 9 9 9 9 9 9 12 12 12 10 11 10 11 11 9 7 4 3 1 2 2 3 4 5 5 5 5 6 7 7 7 7 7 7 6 6 6 5 5 7 7 7 7 7 7 7 7 7 7 6 7
7 6 5 5 5 4 4 3 3 3 3 2 3 4 5 5 7 7 8 8 8 9 9 10 10 10 9 8 8 8 8 8 7 7 8 9 9 8 9 11 11 12 11 12 13 13 12 11 17 19 10 6 6 6 4 1 2 2 4 5 5 5 4 4 4 5 4 6 6 5 5 5 5 5 5 6 6 6 6 6 6 6 6 6 6 6 6
6 4 4 3 4 5 5 4 5 5 4 4 6 7 8 8 8 7 7 7 7 8 8 9 9 9 8 8 6 6 6 6 6 6 6 6 6 8 9 11 13 12 10 9 12 12 11 11 18 19 10 7 7 7 9 6 4 4 5 4 5 6 6 6 5 5 5 5 5 5 6 6 6 6 5 6 5 5 5 5 5 6 5 5 5 5 5
5 5 5 4 4 5 5 4 4 6 7 6 6 4 6 8 8 8 8 7 7 7 8 8 7 8 8 7 5 6 7 8 8 6 6 8 7 11 13 13 11 10 10 9 11 10 9 13 18 12 8 8 8 8 11 13 5 6 5 5 5 5 5 6 6 6 6 6 5 6 6 6 6 5 5 4 4 4 4 4 4 5 5 5 5 6 5
6 5 5 4 4 4 3 4 6 6 6 5 6 6 6 7 7 7 7 7 7 7 7 7 8 6 6 6 5 6 8 9 9 9 9 10 10 13 11 11 10 10 9 11 11 8 10 12 10 8 8 9 9 9 12 14 12 7 6 5 5 6 6 6 6 7 5 6 6 6 5 5 5 4 4 4 4 3 3 4 4 4 4 4 4 5 5
5 5 5 4 4 3 4 5 6 5 5 5 5 5 6 7 7 6 6 7 8 9 8 7 6 4 5 5 6 6 8 10 10 11 12 9 9 9 7 9 13 12 13 15 11 8 13 16 11 8 8 9 8 7 9 13 13 10 8 7 7 7 6 6 6 6 6 6 6 6 5 5 5 4 4 4 4 3 3 3 3 3 3 3 3 3 3
4 5 5 4 4 4 4 4 5 6 6 6 6 6 6 7 6 6 7 7 7 8 8 7 7 6 6 6 6 6 7 8 12 15 12 10 11 9 8 8 11 11 12 11 10 9 12 11 10 9 8 9 8 10 7 10 9 11 10 9 8 9 10 9 9 9 8 8 7 6 5 5 5 5 5 4 4 4 4 3 3 2 2 2 3 3 3
7 6 4 5 4 4 3 3 3 6 7 6 6 6 7 6 6 6 6 6 6 7 7 8 10 8 7 7 6 7 9 10 10 13 15 13 10 7 7 7 10 10 17 14 13 10 9 10 11 10 10 9 8 15 13 8 9 10 10 9 9 10 10 9 9 8 8 8 9 9 7 7 7 7 7 8 8 7 7 6 6 5 4 3 1 1 3
6 5 4 4 3 4 3 4 5 4 6 6 7 6 6 6 7 6 6 7 7 7 8 8 9 10 9 8 8 8 8 9 11 9 9 11 13 13 9 7 8 9 17 11 10 8 9 9 10 10 16 14 11 15 13 8 8 10 11 11 9 9 10 9 8 8 9 10 8 8 8 7 7 7 8 8 8 7 7 7 7 6 7 7 7 8 8
4 4 3 3 4 3 3 3 3 4 5 5 4 5 6 7 7 7 7 7 8 8 8 8 8 9 9 9 8 7 7 8 8 7 5 5 6 10 12 9 8 10 16 10 8 8 9 10 10 15 20 21 20 18 9 8 9 9 8 9 9 8 8 10 11 9 8 9 9 9 8 9 8 8 8 8 8 8 8 7 7 6 7 7 7 7 7
5 4 4 4 3 4 5 4 4 4 3 3 5 7 7 7 7 7 7 7 8 8 8 8 8 8 8 8 7 7 7 7 7 7 7 6 6 7 10 10 9 8 10 12 8 8 9 11 15 21 19 21 19 16 9 9 9 9 10 10 9 10 10 9 8 9 10 10 9 9 9 8 8 8 8 8 8 8 8 7 8 7 7 8 8 8 8
4 6 5 7 8 6 6 5 5 4 4 4 5 5 6 6 5 5 7 8 7 7 7 7 8 9 9 8 7 7 6 6 8 8 7 6 5 6 8 9 8 9 13 12 8 9 10 19 22 20 21 21 18 10 9 10 9 10 10 10 10 10 9 8 9 9 9 9 9 8 8 8 8 8 9 8 8 8 8 9 8 8 8 8 8 7 7
4 7 8 7 7 7 7 6 4 5 5 5 5 4 5 7 6 4 5 6 8 7 7 7 7 8 8 9 7 6 6 4 6 7 7 6 6 6 8 11 11 12 10 8 9 11 12 13 16 20 20 20 16 9 10 10 10 9 9 10 10 10 9 9 9 9 9 9 9 10 10 10 9 8 9 9 9 9 8 8 8 8 8 8 8 9 8
5 6 8 8 8 8 8 8 7 6 5 5 3 3 3 4 5 5 5 5 7 8 8 7 7 7 9 9 8 7 6 5 3 6 7 7 6 6 6 7 9 12 11 9 12 15 22 21 21 21 20 17 11 10 10 10 10 9 9 9 10 9 8 8 9 9 9 9 9 9 8 9 9 9 9 9 8 8 8 8 8 8 8 8 8 8 9
6 6 6 7 7 8 7 5 5 5 4 5 5 3 5 4 4 5 5 5 6 6 7 7 9 8 8 9 9 7 7 7 6 5 6 6 6 6 7 8 12 12 9 7 8 8 16 20 19 19 18 14 10 10 10 10 10 9 9 9 9 9 9 9 9 8 9 9 9 9 8 9 8 8 9 9 8 8 9 9 8 8 8 7 8 8 8
4 4 4 4 5 6 6 4 4 4 4 4 4 4 4 4 3 4 5 5 4 5 5 6 6 6 7 7 6 7 7 7 7 7 6 7 8 7 7 7 8 11 11 8 8 8 11 16 16 16 13 10 10 10 10 10 9 9 8 9 9 9 10 10 11 12 9 9 8 8 9 9 8 9 9 8 8 8 8 8 7 10 14 10 8 8 8
4 4 4 4 4 4 4 5 4 4 4 4 4 4 4 3 3 4 4 5 4 4 4 5 6 7 7 6 6 7 7 7 7 8 7 7 7 8 9 7 8 9 9 8 8 8 8 9 9 10 10 10 9 10 9 9 8 8 9 8 9 9 8 9 8 9 9 9 8 9 9 8 8 8 8 8 8 8 8 8 8 8 8 8 8 7 7
3 2 2 2 2 2 3 4 5 4 4 4 4 4 3 3 3 3 5 7 5 4 4 4 5 6 6 6 6 6 7 7 7 7 7 8 7 6 7 9 7 8 8 8 8 8 8 8 9 12 11 9 8 8 9 11 9 8 8 8 7 8 9 9 8 8 8 9 8 8 8 8 8 8 8 8 8 7 7 7 7 7 7 7 7 8 7
Wind_Direction
312 309 310 310 312 238 198 200 199 200 198 197 204 210 213 210 218 230 203 217 227 245 239 203 198 163 292 305 308 327 172 340 320 333 334 331 181 172 205 222 222 217 215 209 209 206 208 200 203 211 211 215 215 208 207 200 192 199 188 187 194 195 196 202 203 193 178 174 176 178 178 177 184 181 172 171 175 173 177 186 178 178 173 166 154 151 145
308 307 307 311 301 309 258 209 202 201 194 202 200 206 210 215 223 226 240 234 236 241 242 227 215 134 289 300 306 302 275 239 173 189 242 265 286 298 276 253 228 227 226 223 219 216 207 204 212 213 211 211 207 202 197 195 197 199 176 196 194 196 202 210 198 179 174 166 173 174 181 189 189 190 179 172 174 174 172 169 168 167 158 153 156 153 150
292 294 295 298 309 318 317 285 226 203 200 199 201 202 209 216 224 228 238 243 244 243 240 227 169 128 234 237 258 270 283 300 297 277 195 206 234 215 233 240 236 229 224 228 228 225 222 217 217 215 212 208 199 204 198 189 198 190 183 193 197 198 207 205 186 167 174 176 170 179 184 184 183 190 189 182 181 179 176 169 167 163 159 137 163 160 158
281 277 303 303 316 312 290 278 281 238 206 205 198 204 202 206 214 219 231 239 239 248 245 233 241 222 215 229 234 239 243 253 263 276 288 281 236 225 205 222 217 206 214 212 217 220 220 219 219 215 216 219 205 220 205 197 192 169 185 196 196 204 206 192 185 179 184 175 178 180 175 180 181 185 189 189 190 187 183 182 176 167 162 165 170 169 165
264 285 301 313 310 306 289 264 249 259 239 211 203 208 202 209 202 213 219 235 238 245 215 220 235 225 224 224 229 238 245 242 242 246 247 260 271 262 234 212 219 216 204 207 210 218 221 223 218 215 211 204 210 218 215 206 161 165 191 195 195 201 198 195 195 188 182 181 183 180 179 175 168 175 190 194 196 192 191 188 168 173 176 175 175 167 157
287 293 298 301 300 268 240 297 295 227 238 217 214 217 213 214 205 220 218 227 231 233 229 229 245 229 217 219 221 220 230 236 240 243 246 253 262 268 261 224 216 222 226 213 214 216 217 220 216 212 193 201 210 213 215 191 159 184 183 188 191 194 187 196 196 190 187 183 185 183 172 168 167 176 190 198 200 199 194 173 177 174 177 179 175 178 174
283 293 288 280 253 256 265 203 318 290 254 236 228 223 219 221 218 225 235 241 243 237 234 240 244 229 221 221 223 222 221 228 238 241 242 241 248 256 261 262 227 214 221 225 227 225 223 219 210 199 201 211 231 239 231 224 201 193 191 183 187 186 188 193 191 192 191 190 187 175 169 169 170 179 189 193 196 196 195 192 188 187 184 185 184 180 178
265 267 261 255 230 338 323 314 302 293 276 258 251 241 231 220 217 218 228 233 237 243 247 246 241 218 212 232 217 225 222 212 220 234 237 238 233 234 236 239 241 210 212 220 218 222 212 195 197 192 199 194 204 220 203 215 206 202 194 191 185 180 186 188 191 191 187 188 184 173 170 173 175 179 188 191 190 189 192 197 200 192 192 186 178 180 178
250 246 265 260 302 295 273 285 285 288 276 272 246 246 234 227 225 220 225 231 235 243 250 248 249 128 171 235 236 216 218 205 212 225 235 235 234 240 240 235 239 243 234 231 240 251 235 185 197 196 203 196 202 212 205 212 210 212 205 203 193 183 187 188 188 186 185 181 180 178 177 178 183 180 180 186 188 176 183 193 191 196 198 195 189 188 182
213 249 259 273 263 250 277 258 259 251 262 268 272 272 262 242 232 223 218 220 225 230 235 240 238 112 224 251 251 216 182 202 220 230 238 241 242 240 241 241 241 242 242 247 245 229 227 226 204 196 196 196 195 206 210 205 203 208 207 215 201 187 188 185 183 179 181 180 181 175 178 187 184 178 170 174 179 174 183 185 196 198 192 193 193 189 180
223 224 236 246 251 253 263 292 288 297 360 351 339 298 272 239 265 261 235 224 228 230 233 240 219 162 231 246 249 208 152 184 207 219 226 232 236 236 224 229 238 236 224 231 234 232 227 233 231 188 195 195 193 205 204 201 201 207 208 213 207 197 188 178 174 176 178 183 182 180 182 186 176 169 171 168 173 170 187 189 194 194 193 196 192 193 191
233 245 243 244 231 263 237 253 266 28 345 331 345 279 265 23 344 338 352 297 246 231 236 238 228 197 225 240 250 174 161 186 210 215 225 230 236 240 239 238 237 238 237 239 233 231 233 235 240 211 196 179 198 203 200 194 202 211 209 210 210 200 179 166 165 171 173 180 183 180 181 172 168 168 156 148 170 169 182 188 191 193 189 200 203 198 182
232 233 247 256 253 238 266 286 299 347 333 301 267 257 9 347 327 339 330 333 336 306 268 245 241 219 223 239 254 99 155 199 211 213 222 227 223 230 235 234 234 232 231 231 230 227 234 232 230 213 178 184 198 202 199 199 214 212 205 206 211 208 177 155 162 172 178 183 182 182 174 166 163 153 162 163 165 166 170 179 189 193 195 202 203 200 190
230 230 237 242 254 238 169 241 319 312 306 244 251 62 142 262 320 333 330 329 332 339 343 335 315 299 282 271 275 124 206 210 218 215 220 224 228 241 244 245 231 212 222 227 232 238 237 226 198 187 182 194 204 200 204 213 216 195 195 212 209 194 186 168 166 171 176 180 171 161 147 142 154 165 164 159 167 165 169 174 184 194 192 199 204 206 196
234 233 240 237 241 203 178 174 287 244 218 290 61 341 236 251 316 316 331 328 330 343 329 323 315 312 319 322 310 289 260 268 263 256 232 220 216 223 222 226 221 214 221 226 226 230 232 223 194 185 181 197 202 201 211 219 193 184 205 201 194 195 191 174 165 167 171 169 161 155 156 155 151 158 163 162 162 166 166 167 179 189 190 194 200 203 197
243 230 222 228 319 4 266 229 190 103 206 333 98 264 336 318 290 330 319 329 323 332 326 324 324 319 321 326 326 311 294 282 281 290 278 287 288 283 253 237 216 185 227 234 233 233 239 221 197 190 186 202 206 211 220 206 179 194 189 190 179 190 193 177 161 161 153 151 151 155 150 149 153 155 160 164 164 170 166 166 174 186 193 188 191 196 195
245 259 268 330 316 246 242 67 30 5 253 114 220 159 281 301 304 286 300 312 319 319 326 322 317 321 331 322 317 308 291 282 277 277 259 240 237 249 263 258 237 210 224 232 238 242 226 214 203 201 197 203 209 215 217 174 196 185 184 177 180 184 181 177 160 149 145 156 156 153 157 157 155 157 158 164 167 173 168 173 180 185 191 189 193 198 199
266 277 271 266 220 215 225 222 222 257 237 212 226 250 272 267 283 291 284 297 305 311 319 321 317 324 324 317 317 311 304 295 284 275 266 239 224 227 238 253 243 226 227 235 241 243 234 204 210 206 209 207 212 219 201 189 185 171 168 178 188 193 187 181 177 158 150 134 136 154 157 166 159 162 161 167 168 169 174 182 185 187 189 190 196 201 208
293 256 123 181 239 277 261 248 217 232 239 237 240 254 252 277 281 281 272 283 293 301 308 307 316 322 320 313 307 306 301 297 289 278 264 262 241 227 228 237 231 226 215 224 228 226 237 213 204 209 211 218 222 214 188 169 166 171 178 183 188 187 186 170 146 151 155 160 156 163 167 170 167 161 167 171 171 171 180 183 185 188 186 189 194 199 203
238 256 268 259 271 249 260 286 266 217 218 215 230 239 260 271 286 292 304 324 306 312 316 318 325 324 323 318 318 318 313 309 306 299 293 290 281 239 240 249 218 223 212 220 222 218 228 221 197 203 200 210 213 203 166 162 166 172 181 189 187 186 183 165 162 163 165 161 157 162 171 171 165 167 174 179 182 185 187 185 180 184 186 190 194 195 196
247 255 269 278 275 272 272 252 230 221 204 196 214 241 256 267 285 313 326 328 308 313 306 316 323 324 324 322 321 318 316 319 317 312 302 293 283 274 248 228 206 210 215 218 225 218 230 221 191 204 207 204 193 188 167 167 166 173 182 183 189 186 176 155 155 159 161 155 169 157 160 171 171 173 172 183 190 201 207 198 193 180 184 190 197 199 199
251 252 262 263 277 279 255 214 217 221 228 213 232 254 277 292 312 332 334 327 321 310 315 326 328 330 328 325 325 322 317 317 319 317 308 293 282 263 242 252 245 257 252 238 224 218 226 204 196 203 203 201 186 181 162 166 169 174 175 172 172 167 162 165 156 160 158 161 158 152 154 160 160 170 157 158 193 194 201 198 201 202 180 192 194 196 201
251 237 238 232 239 256 255 240 266 273 252 232 238 247 277 309 325 342 342 333 330 334 348 354 349 340 327 322 326 323 324 324 323 320 307 292 297 319 4 355 308 267 251 243 234 215 208 184 192 195 192 190 176 173 168 167 173 174 168 166 167 165 165 174 171 163 160 160 162 157 155 154 160 162 168 179 186 198 218 179 196 199 200 188 149 184 203
253 257 262 245 228 245 262 266 285 258 55 226 226 233 304 326 341 341 329 314 320 339 347 346 2 334 323 323 332 326 324 329 338 342 332 328 332 340 351 296 276 270 257 236 230 222 200 174 182 191 195 188 178 170 172 176 178 173 174 169 167 172 173 168 168 172 155 151 147 150 150 155 161 166 172 176 198 198 198 172 176 197 206 209 210 203 208
248 244 250 244 260 276 284 302 76 88 61 49 316 2 349 348 356 334 317 321 4 8 341 339 341 333 321 320 334 335 327 324 336 340 336 332 329 328 320 321 284 247 234 217 220 205 170 166 176 192 200 196 175 164 168 177 176 174 179 183 176 161 164 159 164 164 155 149 156 158 155 161 166 173 175 183 184 192 189 186 186 198 210 217 219 219 219
242 246 256 270 270 266 267 102 119 116 85 61 47 346 346 357 331 329 330 356 359 0 351 350 335 325 323 322 331 331 327 326 331 329 344 344 338 335 319 275 272 277 268 213 195 211 152 165 177 190 204 196 174 167 168 174 179 176 178 182 178 163 161 160 158 161 164 160 160 164 164 163 167 171 182 181 184 170 171 189 211 229 228 223 225 228 234
235 228 233 260 254 247 142 209 197 115 93 78 66 40 343 346 319 317 4 19 13 353 344 349 330 319 314 320 325 327 331 320 324 329 337 330 324 315 315 315 301 284 279 255 162 165 152 169 204 214 218 201 166 160 173 174 171 168 167 161 138 163 166 166 158 161 158 160 159 156 160 167 174 178 178 179 173 177 186 191 202 210 219 221 218 216 224
114 81 197 219 238 228 150 127 107 106 68 44 22 24 7 336 330 3 46 14 360 347 338 345 337 332 326 330 336 331 338 341 333 321 321 317 311 307 307 310 310 301 294 296 318 144 157 163 187 216 239 222 163 168 171 174 172 171 169 158 154 155 167 177 174 159 157 162 164 165 169 172 172 170 173 179 182 186 191 199 204 211 220 222 224 205 210
90 86 42 43 80 113 124 117 96 66 49 27 7 35 19 15 0 12 357 360 352 343 334 337 331 323 321 321 331 333 331 329 325 321 312 307 305 303 305 310 306 300 291 293 313 356 174 182 189 216 227 172 177 185 177 176 178 171 169 166 161 159 166 176 174 164 158 155 158 162 162 156 162 175 180 181 183 187 190 197 202 209 214 213 211 217 205
89 51 67 89 71 124 145 136 97 61 31 9 2 12 24 10 12 25 5 349 346 338 334 331 316 316 322 319 329 333 329 325 316 307 303 296 297 305 311 313 306 287 270 288 331 309 294 255 236 249 271 129 160 189 192 195 189 182 180 177 174 166 165 158 146 160 150 158 160 150 154 156 172 178 175 177 179 183 186 193 195 198 202 207 205 211 209
36 52 71 77 87 75 89 95 84 56 28 20 9 5 12 18 6 355 3 346 336 326 328 324 317 312 320 325 322 315 319 319 310 300 300 305 318 328 332 343 347 341 350 340 343 347 319 310 310 308 13 138 167 173 187 207 208 180 176 172 170 170 161 161 165 162 161 152 150 160 165 173 177 174 175 173 174 179 186 187 188 195 199 201 203 209 211
112 79 56 52 63 88 81 67 69 43 22 16 19 25 13 8 352 345 336 337 328 323 318 319 324 328 324 318 312 316 337 329 318 313 311 323 356 357 2 6 30 46 32 19 17 18 16 10 6 351 346 298 192 182 178 186 194 203 200 179 166 155 165 163 160 169 156 154 157 160 162 169 177 177 176 176 177 180 181 182 186 189 193 198 204 206 202
140 124 203 61 45 59 69 51 43 19 9 13 19 21 14 1 348 331 324 321 322 322 320 321 323 324 322 318 314 334 342 334 321 321 346 348 357 3 12 19 24 33 35 23 18 17 18 12 356 344 337 331 249 206 197 188 189 189 198 191 165 140 151 168 159 153 155 155 163 166 162 163 165 176 181 180 178 177 180 185 187 190 196 200 203 204 199
14 33 56 61 41 41 3 358 28 358 348 354 15 17 4 7 346 329 324 325 326 326 330 327 327 325 323 319 324 339 342 352 358 350 346 342 346 346 358 24 31 30 34 28 24 18 6 359 350 338 341 354 0 230 195 194 191 182 170 170 158 146 157 150 154 153 153 161 161 157 152 153 159 170 177 180 178 178 181 186 188 190 193 199 204 202 197
41 54 52 53 43 39 39 35 11 356 340 344 354 360 1 354 349 332 330 333 328 327 326 325 325 326 319 318 331 342 351 342 342 339 340 346 343 346 349 6 20 26 30 27 20 10 355 348 354 346 336 351 21 42 4 214 181 162 151 158 152 153 148 151 155 159 159 156 145 148 155 158 166 161 166 176 178 180 181 184 186 189 195 197 202 203 198
28 39 38 30 26 20 25 18 25 23 39 357 344 347 353 353 349 346 338 328 324 327 326 324 323 323 323 335 347 352 345 334 338 353 350 349 348 355 14 22 23 30 23 23 14 358 348 350 353 353 346 347 359 6 15 63 163 137 150 147 149 142 141 141 137 128 126 132 139 142 149 143 139 151 166 172 173 177 177 179 182 186 192 195 198 198 199
27 26 17 13 11 12 17 35 31 26 13 13 1 359 349 350 349 335 330 328 332 332 326 324 324 324 323 328 341 345 335 338 334 358 2 352 8 25 28 28 25 15 5 14 351 343 342 350 348 349 349 355 356 1 3 16 150 143 149 140 138 143 143 140 127 128 122 124 126 130 132 141 152 157 161 167 169 171 171 174 177 180 186 188 191 190 194
17 16 11 9 6 17 43 40 40 37 29 30 13 358 345 343 336 336 335 336 341 335 333 321 308 301 313 326 347 2 351 345 335 350 28 25 20 46 42 38 27 12 7 358 333 332 343 347 347 348 349 356 2 357 13 24 88 127 137 138 135 123 124 130 133 131 133 137 133 135 144 148 150 147 151 157 162 166 175 177 176 179 183 185 188 192 197
14 13 16 2 29 40 48 42 34 39 38 33 0 355 350 347 338 341 338 343 342 342 338 321 311 313 343 353 359 9 10 358 349 2 22 38 44 53 56 41 29 14 352 336 329 339 351 352 346 345 354 349 354 5 21 26 35 70 85 97 99 118 117 127 122 122 116 124 128 131 132 136 135 137 145 149 156 164 174 180 182 180 178 183 187 194 200
6 3 1 352 25 24 44 40 45 40 34 34 25 5 347 350 348 345 340 349 346 349 339 325 325 349 0 8 6 13 14 15 9 15 20 26 36 43 47 38 21 6 353 341 336 349 357 356 357 2 355 346 345 1 21 40 52 46 43 53 64 72 71 86 93 100 105 109 110 112 114 119 123 130 132 135 143 154 161 171 181 186 187 182 187 190 195
358 356 350 15 18 21 30 33 43 37 34 23 22 6 4 2 350 353 356 348 346 348 344 336 346 353 1 11 15 10 10 23 28 25 22 32 38 35 38 28 4 359 356 348 341 348 360 2 4 1 353 350 347 1 21 37 47 61 58 49 49 57 64 61 63 67 70 78 84 85 93 104 109 115 123 135 139 144 153 155 166 175 184 192 202 202 208
344 336 359 18 16 12 10 22 55 50 37 29 19 12 6 1 4 354 343 349 354 359 354 352 2 3 0 15 22 26 17 10 28 41 38 41 31 22 27 22 1 358 354 341 334 348 1 4 7 12 6 359 357 13 24 41 52 57 62 53 52 53 56 53 56 57 57 62 68 69 54 54 60 59 54 55 51 46 43 41 41 38 25 16 353 236 215
349 355 350 357 8 14 26 40 57 70 59 34 23 16 10 8 10 3 359 7 10 5 4 356 356 1 1 13 24 29 20 9 11 23 51 53 41 34 27 7 355 357 354 343 341 351 8 14 11 14 14 15 12 13 27 31 44 58 64 60 54 52 51 47 46 42 54 56 45 41 45 47 48 56 61 59 55 50 46 43 39 35 37 30 26 25 20
338 353 350 351 358 1 27 41 49 66 68 40 24 23 23 20 19 16 11 17 19 17 12 2 358 1 359 7 33 33 25 14 12 1 17 38 40 31 21 9 1 352 354 350 346 1 13 19 20 20 20 21 17 14 19 33 43 44 42 45 46 44 47 52 51 41 33 37 40 38 38 42 44 46 57 59 56 54 51 46 40 35 37 35 30 27 22
11 352 350 2 350 4 10 10 31 33 52 37 32 33 23 19 16 18 24 27 27 25 17 12 13 10 4 2 20 40 48 35 26 16 27 23 21 19 9 4 1 357 353 357 356 9 20 23 24 26 29 24 20 17 18 23 35 43 49 51 47 50 48 40 34 36 40 41 40 38 39 38 39 43 49 51 53 52 48 45 42 36 38 35 29 25 20
14 8 4 16 16 6 359 12 12 37 41 41 36 32 24 13 16 22 32 34 36 26 21 15 21 20 13 5 9 11 47 56 40 33 35 34 28 7 7 9 7 1 355 0 15 17 23 23 26 27 29 31 26 22 23 21 26 44 49 50 50 50 47 39 39 42 43 42 40 39 38 35 37 41 45 46 43 45 45 43 43 37 36 34 31 26 19
26 20 19 16 10 8 11 10 19 41 40 40 34 22 9 7 16 24 19 36 51 40 31 20 20 17 20 16 15 17 12 38 63 39 26 19 18 13 13 15 11 4 360 11 25 29 30 27 26 27 29 32 32 28 28 25 24 28 38 45 48 50 48 46 42 43 40 40 39 42 41 41 37 38 42 44 43 40 37 38 39 34 30 29 25 25 22
39 34 24 20 15 9 15 19 33 40 33 30 14 358 357 9 12 8 15 30 53 53 44 33 17 14 18 18 16 20 16 358 43 42 24 13 16 14 15 21 16 9 6 10 23 32 32 32 29 28 28 32 31 29 30 30 24 21 27 37 43 43 43 45 46 47 43 41 39 38 37 36 35 36 39 41 39 38 36 36 36 31 29 27 24 21 18
35 41 34 32 26 22 19 19 21 25 26 9 3 356 351 337 357 15 12 13 35 50 48 35 26 19 18 18 20 15 20 22 42 44 17 16 19 17 15 12 14 11 11 17 20 21 29 32 31 28 27 31 31 32 36 34 28 24 24 28 37 39 41 46 50 53 53 47 44 45 42 40 37 37 37 37 35 33 33 33 31 30 27 27 26 22 18
15 27 28 30 28 26 17 18 19 8 1 1 357 358 345 345 22 18 14 6 24 49 51 44 33 22 20 18 13 14 12 23 33 34 30 25 25 27 21 17 18 18 23 23 22 22 23 29 31 29 28 30 36 38 40 38 34 28 26 27 34 42 43 48 54 56 54 52 48 48 45 42 38 39 37 35 33 31 28 27 24 24 27 30 28 23 17
16 22 26 30 34 36 30 28 10 360 352 4 360 360 3 23 31 21 17 9 3 28 49 53 43 26 16 17 14 13 14 17 27 32 36 31 31 28 27 23 21 23 21 26 27 22 21 28 30 29 30 35 39 42 42 40 40 33 27 26 30 39 41 45 46 50 51 50 49 48 47 42 37 38 37 34 31 30 25 21 20 19 21 23 20 17 14
28 24 8 8 34 49 43 30 20 13 359 5 8 5 4 7 18 25 28 20 20 17 16 34 41 22 12 13 16 15 16 23 27 29 36 37 32 30 21 23 24 20 19 24 26 26 27 26 30 34 36 37 38 41 42 43 41 41 33 30 32 38 43 47 49 50 50 51 49 48 45 45 40 37 34 31 28 25 21 21 19 19 17 15 14 11 11